QPF
0.00 0.00 0.00 0.00 0.00 0.00 0.00 0.00 0.00 0.01 0.02 0.01 0.01 0.02 0.02 0.02 0.02 0.02 0.02 0.03 0.04 0.03 0.04 0.03 0.02 0.02 0.04 0.05 0.05 0.04 0.03 0.03 0.04 0.04 0.04 0.04 0.04 0.04 0.05 0.06 0.06 0.07 0.07
0.00 0.00 0.00 0.00 0.00 0.00 0.00 0.00 0.00 0.00 0.00 0.01 0.01 0.01 0.01 0.02 0.02 0.03 0.03 0.03 0.03 0.02 0.01 0.01 0.02 0.03 0.05 0.06 0.05 0.04 0.03 0.03 0.05 0.05 0.04 0.04 0.03 0.03 0.04 0.05 0.07 0.08 0.09
0.00 0.00 0.00 0.00 0.00 0.00 0.00 0.00 0.00 0.00 0.00 0.00 0.01 0.01 0.02 0.02 0.03 0.03 0.03 0.03 0.02 0.02 0.01 0.02 0.03 0.04 0.04 0.05 0.04 0.03 0.02 0.03 0.04 0.04 0.04 0.03 0.04 0.03 0.04 0.04 0.04 0.06 0.07
0.00 0.00 0.00 0.00 0.00 0.00 0.00 0.00 0.00 0.00 0.00 0.00 0.00 0.01 0.01 0.01 0.02 0.03 0.02 0.02 0.01 0.01 0.01 0.02 0.02 0.02 0.03 0.03 0.03 0.04 0.03 0.03 0.03 0.03 0.03 0.02 0.03 0.03 0.03 0.02 0.02 0.02 0.04
0.00 0.00 0.00 0.00 0.00 0.00 0.00 0.00 0.00 0.00 0.00 0.00 0.00 0.00 0.00 0.00 0.01 0.01 0.01 0.02 0.01 0.01 0.03 0.02 0.03 0.03 0.04 0.04 0.04 0.03 0.04 0.04 0.04 0.02 0.02 0.02 0.02 0.02 0.03 0.02 0.02 0.03 0.04
0.00 0.00 0.00 0.00 0.00 0.00 0.00 0.00 0.00 0.00 0.00 0.00 0.00 0.00 0.00 0.00 0.00 0.00 0.01 0.01 0.01 0.01 0.02 0.02 0.01 0.02 0.03 0.04 0.03 0.03 0.03 0.03 0.02 0.02 0.02 0.02 0.02 0.02 0.03 0.04 0.03 0.03 0.03
0.00 0.00 0.00 0.00 0.00 0.00 0.00 0.00 0.00 0.00 0.00 0.00 0.00 0.00 0.00 0.00 0.00 0.00 0.00 0.00 0.00 0.00 0.01 0.01 0.01 0.01 0.02 0.03 0.04 0.05 0.04 0.02 0.01 0.02 0.02 0.02 0.02 0.02 0.03 0.03 0.03 0.03 0.03
0.00 0.00 0.00 0.00 0.00 0.00 0.00 0.00 0.00 0.00 0.00 0.00 0.00 0.00 0.00 0.00 0.00 0.00 0.00 0.00 0.00 0.01 0.01 0.01 0.01 0.01 0.01 0.02 0.02 0.02 0.02 0.01 0.02 0.03 0.03 0.02 0.02 0.02 0.03 0.03 0.04 0.04 0.04
0.00 0.00 0.00 0.00 0.00 0.00 0.00 0.00 0.00 0.00 0.00 0.00 0.00 0.00 0.00 0.00 0.00 0.00 0.00 0.00 0.00 0.00 0.01 0.01 0.01 0.01 0.01 0.02 0.01 0.01 0.01 0.01 0.02 0.03 0.04 0.04 0.03 0.02 0.03 0.03 0.03 0.04 0.04
0.00 0.00 0.00 0.00 0.00 0.00 0.00 0.00 0.00 0.00 0.00 0.00 0.00 0.00 0.00 0.00 0.00 0.00 0.00 0.00 0.00 0.00 0.00 0.00 0.01 0.02 0.02 0.01 0.00 0.00 0.01 0.01 0.02 0.03 0.05 0.08 0.05 0.03 0.03 0.04 0.05 0.05 0.04
0.00 0.00 0.00 0.00 0.00 0.00 0.00 0.00 0.00 0.00 0.00 0.00 0.00 0.00 0.00 0.00 0.00 0.00 0.00 0.00 0.00 0.00 0.00 0.00 0.00 0.00 0.01 0.03 0.04 0.02 0.02 0.02 0.02 0.02 0.04 0.05 0.04 0.04 0.04 0.05 0.06 0.08 0.07
0.00 0.00 0.00 0.00 0.00 0.00 0.00 0.00 0.00 0.00 0.00 0.00 0.00 0.00 0.00 0.00 0.00 0.00 0.00 0.00 0.00 0.00 0.00 0.00 0.00 0.00 0.00 0.01 0.01 0.02 0.03 0.04 0.03 0.03 0.03 0.04 0.04 0.03 0.03 0.05 0.06 0.06 0.06
0.00 0.00 0.00 0.00 0.00 0.00 0.00 0.00 0.00 0.00 0.00 0.00 0.00 0.00 0.00 0.00 0.00 0.00 0.00 0.00 0.00 0.00 0.00 0.00 0.00 0.00 0.00 0.00 0.00 0.00 0.00 0.01 0.01 0.03 0.03 0.02 0.02 0.02 0.02 0.02 0.04 0.05 0.05
0.00 0.00 0.00 0.00 0.00 0.00 0.00 0.00 0.00 0.00 0.00 0.00 0.00 0.00 0.00 0.00 0.00 0.00 0.00 0.00 0.00 0.00 0.00 0.00 0.00 0.00 0.00 0.00 0.00 0.00 0.00 0.00 0.00 0.01 0.03 0.03 0.01 0.01 0.01 0.02 0.01 0.02 0.02
0.00 0.00 0.00 0.00 0.00 0.00 0.00 0.00 0.00 0.00 0.00 0.00 0.00 0.00 0.00 0.00 0.00 0.00 0.00 0.00 0.00 0.00 0.00 0.00 0.00 0.00 0.00 0.00 0.00 0.00 0.00 0.00 0.00 0.01 0.01 0.01 0.01 0.02 0.02 0.01 0.01 0.01 0.02
0.00 0.00 0.00 0.00 0.00 0.00 0.00 0.00 0.00 0.00 0.00 0.00 0.00 0.00 0.00 0.00 0.00 0.00 0.00 0.00 0.00 0.00 0.00 0.00 0.00 0.00 0.00 0.00 0.00 0.00 0.00 0.00 0.00 0.00 0.00 0.00 0.00 0.01 0.02 0.02 0.01 0.01 0.02
0.00 0.00 0.00 0.00 0.00 0.00 0.00 0.00 0.00 0.00 0.00 0.00 0.00 0.00 0.00 0.00 0.00 0.00 0.00 0.00 0.00 0.00 0.00 0.00 0.00 0.00 0.00 0.00 0.00 0.00 0.00 0.00 0.00 0.00 0.00 0.00 0.00 0.00 0.01 0.01 0.01 0.02 0.02
0.00 0.00 0.00 0.00 0.00 0.00 0.00 0.00 0.00 0.00 0.00 0.00 0.00 0.00 0.00 0.00 0.00 0.00 0.00 0.00 0.00 0.00 0.00 0.00 0.00 0.00 0.00 0.00 0.00 0.00 0.00 0.00 0.00 0.00 0.00 0.00 0.01 0.01 0.01 0.01 0.01 0.02 0.03
0.00 0.00 0.00 0.00 0.00 0.00 0.00 0.00 0.00 0.00 0.00 0.00 0.00 0.00 0.00 0.00 0.00 0.00 0.00 0.00 0.00 0.00 0.00 0.00 0.00 0.00 0.00 0.00 0.00 0.00 0.00 0.00 0.00 0.00 0.00 0.00 0.00 0.01 0.01 0.01 0.02 0.02 0.02
0.00 0.00 0.00 0.00 0.00 0.00 0.00 0.00 0.00 0.00 0.00 0.00 0.00 0.00 0.00 0.00 0.00 0.00 0.00 0.00 0.00 0.00 0.00 0.00 0.00 0.00 0.00 0.00 0.00 0.00 0.00 0.00 0.00 0.00 0.00 0.00 0.00 0.01 0.01 0.01 0.01 0.01 0.02
0.00 0.00 0.00 0.00 0.00 0.00 0.00 0.00 0.00 0.00 0.00 0.00 0.00 0.00 0.00 0.00 0.00 0.00 0.00 0.00 0.00 0.00 0.00 0.00 0.00 0.00 0.00 0.00 0.00 0.00 0.00 0.00 0.00 0.00 0.00 0.00 0.00 0.01 0.01 0.01 0.01 0.01 0.02
0.00 0.00 0.00 0.00 0.00 0.00 0.00 0.00 0.00 0.00 0.00 0.00 0.00 0.00 0.00 0.00 0.00 0.00 0.00 0.00 0.00 0.00 0.00 0.00 0.00 0.00 0.00 0.00 0.00 0.00 0.00 0.00 0.00 0.00 0.00 0.00 0.00 0.01 0.01 0.01 0.01 0.01 0.01
0.00 0.00 0.00 0.00 0.00 0.00 0.00 0.00 0.00 0.00 0.00 0.00 0.00 0.00 0.00 0.00 0.00 0.00 0.00 0.00 0.00 0.00 0.00 0.00 0.00 0.00 0.00 0.00 0.00 0.00 0.00 0.00 0.00 0.00 0.00 0.00 0.00 0.00 0.01 0.01 0.01 0.01 0.02
0.00 0.00 0.00 0.00 0.00 0.00 0.00 0.00 0.00 0.00 0.00 0.00 0.00 0.00 0.00 0.00 0.00 0.00 0.00 0.00 0.00 0.00 0.00 0.00 0.00 0.00 0.00 0.00 0.00 0.00 0.00 0.01 0.01 0.00 0.00 0.00 0.00 0.00 0.00 0.01 0.01 0.01 0.02
0.00 0.00 0.00 0.00 0.00 0.00 0.00 0.00 0.00 0.00 0.00 0.00 0.00 0.00 0.00 0.00 0.00 0.00 0.00 0.00 0.00 0.00 0.00 0.00 0.00 0.00 0.00 0.00 0.00 0.00 0.00 0.00 0.00 0.00 0.00 0.00 0.00 0.00 0.00 0.01 0.01 0.01 0.01
0.00 0.00 0.00 0.00 0.00 0.00 0.00 0.00 0.00 0.00 0.00 0.00 0.00 0.00 0.00 0.00 0.00 0.00 0.00 0.00 0.00 0.00 0.00 0.00 0.00 0.00 0.00 0.00 0.00 0.00 0.00 0.00 0.00 0.00 0.00 0.00 0.01 0.01 0.01 0.01 0.01 0.01 0.01
MSLP
1014.05 1014.20 1014.38 1014.55 1014.68 1014.75 1014.76 1014.71 1014.64 1014.53 1014.42 1014.29 1014.16 1014.00 1013.82 1013.62 1013.40 1013.17 1012.95 1012.75 1012.58 1012.44 1012.31 1012.18 1012.02 1011.82 1011.55 1011.23 1010.86 1010.49 1010.13 1009.82 1009.58 1009.43 1009.35 1009.33 1009.34 1009.37 1009.39 1009.41 1009.44 1009.48 1009.57
1013.79 1013.93 1014.10 1014.27 1014.40 1014.49 1014.53 1014.53 1014.49 1014.42 1014.32 1014.21 1014.07 1013.91 1013.73 1013.52 1013.30 1013.07 1012.86 1012.67 1012.51 1012.36 1012.22 1012.06 1011.86 1011.61 1011.31 1010.95 1010.56 1010.18 1009.83 1009.53 1009.31 1009.18 1009.12 1009.11 1009.14 1009.17 1009.20 1009.21 1009.23 1009.26 1009.32
1013.51 1013.66 1013.83 1013.99 1014.14 1014.25 1014.32 1014.35 1014.34 1014.30 1014.23 1014.13 1014.00 1013.84 1013.66 1013.44 1013.22 1013.01 1012.80 1012.62 1012.45 1012.30 1012.15 1011.97 1011.74 1011.46 1011.13 1010.75 1010.35 1009.96 1009.60 1009.31 1009.11 1008.98 1008.93 1008.93 1008.96 1009.00 1009.03 1009.04 1009.05 1009.06 1009.10
1013.20 1013.37 1013.55 1013.73 1013.88 1014.01 1014.10 1014.16 1014.19 1014.18 1014.13 1014.05 1013.93 1013.78 1013.59 1013.38 1013.16 1012.95 1012.75 1012.57 1012.41 1012.26 1012.09 1011.90 1011.66 1011.37 1011.02 1010.63 1010.22 1009.82 1009.46 1009.17 1008.96 1008.82 1008.77 1008.76 1008.79 1008.82 1008.85 1008.86 1008.86 1008.86 1008.87
1012.85 1013.05 1013.26 1013.45 1013.62 1013.76 1013.88 1013.96 1014.01 1014.02 1014.00 1013.93 1013.82 1013.68 1013.49 1013.29 1013.07 1012.86 1012.67 1012.49 1012.33 1012.18 1012.02 1011.83 1011.59 1011.30 1010.95 1010.56 1010.15 1009.75 1009.38 1009.07 1008.84 1008.69 1008.61 1008.59 1008.60 1008.62 1008.64 1008.65 1008.65 1008.64 1008.63
1012.47 1012.71 1012.93 1013.14 1013.32 1013.47 1013.60 1013.70 1013.76 1013.79 1013.78 1013.73 1013.64 1013.49 1013.31 1013.11 1012.90 1012.69 1012.50 1012.33 1012.18 1012.04 1011.90 1011.72 1011.50 1011.23 1010.90 1010.52 1010.12 1009.71 1009.33 1009.00 1008.74 1008.56 1008.44 1008.39 1008.38 1008.39 1008.41 1008.42 1008.42 1008.40 1008.37
1012.07 1012.33 1012.57 1012.78 1012.97 1013.13 1013.25 1013.36 1013.43 1013.47 1013.47 1013.42 1013.33 1013.19 1013.01 1012.81 1012.60 1012.39 1012.21 1012.05 1011.92 1011.80 1011.68 1011.54 1011.36 1011.12 1010.82 1010.47 1010.09 1009.68 1009.30 1008.95 1008.66 1008.43 1008.28 1008.19 1008.15 1008.15 1008.16 1008.18 1008.18 1008.17 1008.14
1011.67 1011.94 1012.18 1012.40 1012.57 1012.72 1012.84 1012.94 1013.01 1013.05 1013.04 1013.00 1012.90 1012.76 1012.57 1012.37 1012.15 1011.95 1011.78 1011.63 1011.53 1011.44 1011.36 1011.27 1011.13 1010.95 1010.70 1010.39 1010.03 1009.65 1009.26 1008.89 1008.57 1008.31 1008.12 1007.99 1007.93 1007.91 1007.92 1007.95 1007.97 1007.98 1007.96
1011.30 1011.57 1011.80 1012.00 1012.16 1012.28 1012.39 1012.47 1012.53 1012.55 1012.54 1012.49 1012.38 1012.22 1012.03 1011.82 1011.60 1011.40 1011.23 1011.11 1011.03 1010.98 1010.95 1010.91 1010.84 1010.71 1010.53 1010.27 1009.95 1009.59 1009.21 1008.84 1008.49 1008.20 1007.97 1007.82 1007.73 1007.70 1007.71 1007.74 1007.78 1007.81 1007.81
1011.00 1011.25 1011.45 1011.62 1011.76 1011.86 1011.95 1012.01 1012.06 1012.07 1012.04 1011.96 1011.83 1011.66 1011.45 1011.23 1011.00 1010.80 1010.64 1010.53 1010.48 1010.47 1010.48 1010.50 1010.49 1010.43 1010.30 1010.10 1009.83 1009.51 1009.14 1008.77 1008.42 1008.10 1007.85 1007.66 1007.55 1007.50 1007.51 1007.55 1007.61 1007.66 1007.68
1010.78 1011.00 1011.18 1011.32 1011.43 1011.52 1011.59 1011.64 1011.67 1011.66 1011.61 1011.51 1011.36 1011.17 1010.94 1010.69 1010.45 1010.24 1010.08 1009.98 1009.95 1009.97 1010.02 1010.08 1010.13 1010.12 1010.06 1009.91 1009.69 1009.40 1009.06 1008.69 1008.34 1008.01 1007.73 1007.52 1007.38 1007.31 1007.31 1007.34 1007.41 1007.47 1007.52
1010.67 1010.85 1011.00 1011.13 1011.22 1011.31 1011.37 1011.42 1011.44 1011.42 1011.36 1011.24 1011.06 1010.84 1010.58 1010.30 1010.04 1009.82 1009.65 1009.55 1009.52 1009.55 1009.63 1009.72 1009.80 1009.84 1009.81 1009.71 1009.53 1009.27 1008.96 1008.61 1008.25 1007.91 1007.61 1007.38 1007.21 1007.11 1007.08 1007.10 1007.15 1007.21 1007.25
1010.65 1010.81 1010.94 1011.06 1011.17 1011.26 1011.34 1011.40 1011.43 1011.41 1011.33 1011.19 1010.99 1010.74 1010.45 1010.14 1009.85 1009.60 1009.41 1009.30 1009.26 1009.29 1009.37 1009.47 1009.56 1009.62 1009.62 1009.54 1009.39 1009.16 1008.86 1008.52 1008.17 1007.83 1007.51 1007.25 1007.05 1006.91 1006.84 1006.81 1006.82 1006.85 1006.87
1010.71 1010.86 1011.00 1011.14 1011.27 1011.40 1011.51 1011.60 1011.65 1011.64 1011.56 1011.41 1011.18 1010.90 1010.58 1010.24 1009.92 1009.64 1009.43 1009.28 1009.22 1009.23 1009.29 1009.38 1009.47 1009.52 1009.53 1009.46 1009.31 1009.09 1008.81 1008.48 1008.13 1007.78 1007.45 1007.16 1006.91 1006.72 1006.59 1006.50 1006.45 1006.42 1006.39
1010.83 1010.99 1011.16 1011.34 1011.52 1011.70 1011.86 1011.99 1012.07 1012.08 1012.00 1011.85 1011.61 1011.31 1010.96 1010.60 1010.25 1009.94 1009.70 1009.53 1009.44 1009.42 1009.45 1009.50 1009.56 1009.59 1009.58 1009.50 1009.35 1009.13 1008.85 1008.53 1008.18 1007.82 1007.47 1007.14 1006.85 1006.60 1006.40 1006.23 1006.10 1005.98 1005.87
1010.99 1011.18 1011.40 1011.63 1011.87 1012.11 1012.33 1012.51 1012.63 1012.66 1012.60 1012.45 1012.20 1011.89 1011.53 1011.15 1010.79 1010.47 1010.21 1010.02 1009.90 1009.85 1009.84 1009.86 1009.88 1009.87 1009.82 1009.72 1009.55 1009.32 1009.04 1008.72 1008.36 1007.99 1007.63 1007.27 1006.93 1006.62 1006.34 1006.08 1005.85 1005.63 1005.43
1011.17 1011.41 1011.67 1011.97 1012.28 1012.58 1012.86 1013.08 1013.23 1013.29 1013.25 1013.10 1012.86 1012.55 1012.20 1011.83 1011.47 1011.15 1010.89 1010.69 1010.56 1010.49 1010.45 1010.43 1010.41 1010.36 1010.27 1010.14 1009.94 1009.70 1009.40 1009.07 1008.71 1008.33 1007.95 1007.56 1007.18 1006.81 1006.45 1006.10 1005.77 1005.45 1005.14
1011.35 1011.64 1011.97 1012.32 1012.68 1013.04 1013.36 1013.62 1013.80 1013.88 1013.85 1013.71 1013.49 1013.20 1012.86 1012.52 1012.19 1011.90 1011.67 1011.49 1011.36 1011.28 1011.22 1011.17 1011.11 1011.03 1010.90 1010.72 1010.50 1010.23 1009.92 1009.58 1009.21 1008.83 1008.43 1008.02 1007.60 1007.18 1006.75 1006.32 1005.90 1005.48 1005.07
1011.53 1011.87 1012.24 1012.64 1013.05 1013.44 1013.79 1014.07 1014.26 1014.35 1014.33 1014.21 1014.01 1013.75 1013.46 1013.16 1012.89 1012.65 1012.46 1012.32 1012.22 1012.14 1012.08 1012.01 1011.92 1011.80 1011.63 1011.42 1011.16 1010.87 1010.54 1010.19 1009.81 1009.42 1009.01 1008.58 1008.14 1007.68 1007.20 1006.70 1006.19 1005.69 1005.18
1011.70 1012.08 1012.49 1012.92 1013.35 1013.76 1014.11 1014.39 1014.57 1014.66 1014.65 1014.55 1014.38 1014.17 1013.93 1013.70 1013.49 1013.32 1013.19 1013.10 1013.04 1012.98 1012.93 1012.85 1012.73 1012.57 1012.37 1012.11 1011.82 1011.50 1011.15 1010.78 1010.40 1010.00 1009.59 1009.16 1008.70 1008.21 1007.69 1007.15 1006.59 1006.01 1005.43
1011.84 1012.26 1012.69 1013.13 1013.57 1013.96 1014.30 1014.56 1014.73 1014.82 1014.81 1014.73 1014.59 1014.43 1014.26 1014.10 1013.97 1013.87 1013.81 1013.77 1013.74 1013.71 1013.65 1013.56 1013.42 1013.22 1012.98 1012.69 1012.36 1012.00 1011.63 1011.25 1010.86 1010.46 1010.05 1009.62 1009.16 1008.66 1008.13 1007.56 1006.96 1006.33 1005.70
1011.94 1012.38 1012.83 1013.27 1013.69 1014.06 1014.37 1014.61 1014.76 1014.83 1014.83 1014.77 1014.67 1014.56 1014.45 1014.36 1014.30 1014.27 1014.26 1014.26 1014.26 1014.24 1014.17 1014.06 1013.88 1013.65 1013.36 1013.02 1012.66 1012.27 1011.88 1011.48 1011.09 1010.69 1010.29 1009.87 1009.42 1008.93 1008.40 1007.83 1007.21 1006.56 1005.89
1011.99 1012.44 1012.88 1013.31 1013.71 1014.06 1014.34 1014.55 1014.68 1014.75 1014.75 1014.72 1014.65 1014.59 1014.53 1014.50 1014.49 1014.51 1014.53 1014.56 1014.56 1014.52 1014.43 1014.27 1014.05 1013.77 1013.43 1013.06 1012.65 1012.24 1011.83 1011.42 1011.03 1010.64 1010.25 1009.85 1009.42 1008.96 1008.45 1007.89 1007.28 1006.63 1005.94
1011.96 1012.41 1012.86 1013.27 1013.64 1013.96 1014.22 1014.41 1014.53 1014.60 1014.62 1014.61 1014.58 1014.56 1014.55 1014.55 1014.58 1014.61 1014.64 1014.65 1014.62 1014.54 1014.41 1014.20 1013.92 1013.59 1013.20 1012.78 1012.35 1011.91 1011.48 1011.08 1010.69 1010.32 1009.95 1009.57 1009.18 1008.75 1008.27 1007.74 1007.16 1006.53 1005.85
1011.85 1012.30 1012.74 1013.14 1013.49 1013.79 1014.03 1014.22 1014.34 1014.42 1014.46 1014.48 1014.49 1014.50 1014.52 1014.54 1014.57 1014.59 1014.60 1014.57 1014.49 1014.35 1014.15 1013.87 1013.54 1013.15 1012.72 1012.26 1011.81 1011.36 1010.93 1010.52 1010.15 1009.79 1009.45 1009.10 1008.74 1008.34 1007.90 1007.42 1006.87 1006.28 1005.64
1011.65 1012.10 1012.53 1012.91 1013.26 1013.55 1013.79 1013.98 1014.13 1014.23 1014.31 1014.36 1014.40 1014.44 1014.47 1014.49 1014.50 1014.49 1014.45 1014.36 1014.21 1014.00 1013.72 1013.38 1012.98 1012.54 1012.08 1011.60 1011.13 1010.68 1010.25 1009.86 1009.50 1009.16 1008.83 1008.50 1008.16 1007.80 1007.40 1006.95 1006.46 1005.91 1005.31
Thickness
5678 5675 5671 5668 5665 5662 5659 5656 5654 5652 5651 5649 5648 5648 5647 5647 5647 5646 5646 5647 5647 5648 5649 5650 5651 5652 5653 5654 5655 5657 5660 5663 5664 5670 5675 5681 5685 5689 5694 5698 5702 5705 5708
5680 5676 5672 5669 5666 5663 5660 5657 5655 5653 5652 5650 5649 5648 5647 5647 5646 5646 5645 5645 5645 5645 5645 5646 5647 5648 5648 5649 5650 5652 5654 5657 5659 5662 5667 5672 5676 5681 5685 5690 5694 5698 5701
5682 5677 5674 5670 5667 5664 5661 5659 5656 5654 5652 5651 5649 5648 5647 5646 5646 5645 5644 5644 5643 5643 5643 5643 5643 5643 5644 5644 5645 5647 5649 5652 5654 5656 5660 5664 5668 5672 5676 5681 5686 5689 5693
5683 5679 5675 5671 5668 5665 5662 5660 5657 5655 5653 5651 5650 5648 5647 5646 5645 5644 5643 5643 5642 5642 5641 5641 5641 5640 5640 5640 5641 5642 5644 5646 5648 5650 5653 5656 5659 5664 5668 5671 5676 5680 5684
5685 5680 5677 5673 5670 5666 5663 5661 5658 5656 5654 5652 5650 5649 5648 5647 5646 5645 5643 5643 5641 5640 5640 5640 5639 5640 5640 5639 5639 5639 5640 5641 5642 5644 5647 5649 5652 5655 5659 5664 5667 5671 5675
5686 5682 5679 5675 5671 5668 5665 5662 5659 5657 5655 5653 5651 5649 5648 5649 5649 5648 5645 5643 5641 5639 5638 5638 5638 5638 5638 5638 5638 5638 5638 5638 5638 5639 5641 5644 5647 5650 5653 5657 5660 5662 5666
5688 5684 5680 5676 5672 5669 5666 5663 5660 5657 5655 5653 5651 5650 5649 5649 5649 5648 5647 5643 5641 5638 5637 5636 5636 5636 5635 5635 5635 5636 5636 5636 5637 5636 5638 5641 5644 5647 5649 5652 5654 5656 5660
5689 5685 5681 5677 5673 5670 5666 5663 5660 5658 5655 5653 5652 5650 5649 5649 5650 5649 5647 5643 5640 5638 5636 5635 5633 5633 5633 5633 5632 5632 5632 5632 5634 5635 5637 5639 5641 5644 5646 5648 5650 5651 5653
5689 5686 5682 5678 5674 5670 5667 5664 5661 5658 5656 5654 5652 5651 5649 5649 5650 5648 5647 5642 5639 5638 5636 5635 5633 5632 5633 5632 5630 5629 5630 5630 5632 5634 5636 5638 5640 5642 5643 5644 5644 5645 5646
5690 5687 5683 5679 5675 5671 5668 5665 5662 5659 5656 5655 5653 5651 5650 5648 5649 5648 5646 5642 5638 5637 5636 5635 5634 5633 5632 5631 5629 5628 5628 5629 5630 5632 5633 5635 5636 5638 5640 5641 5641 5641 5641
5691 5687 5683 5679 5675 5672 5668 5665 5662 5659 5656 5654 5652 5651 5650 5649 5648 5648 5646 5641 5638 5636 5634 5633 5632 5632 5631 5631 5629 5627 5627 5628 5628 5629 5630 5631 5632 5633 5635 5636 5637 5637 5637
5689 5685 5681 5678 5674 5672 5667 5664 5660 5657 5654 5652 5650 5650 5649 5648 5647 5646 5645 5642 5639 5635 5633 5631 5630 5631 5630 5629 5628 5628 5628 5628 5626 5626 5627 5627 5628 5629 5630 5631 5632 5633 5635
5686 5682 5678 5675 5671 5668 5665 5661 5658 5655 5652 5650 5648 5646 5646 5646 5645 5644 5643 5641 5639 5634 5632 5631 5630 5628 5627 5626 5625 5625 5625 5624 5624 5623 5624 5624 5625 5625 5626 5627 5628 5629 5629
5682 5678 5674 5670 5667 5664 5661 5658 5654 5651 5648 5647 5645 5643 5642 5642 5641 5640 5638 5636 5635 5632 5629 5627 5626 5624 5622 5621 5621 5620 5620 5619 5619 5619 5620 5620 5621 5621 5622 5622 5623 5623 5624
5677 5673 5669 5665 5662 5658 5655 5651 5649 5646 5644 5642 5640 5638 5637 5637 5638 5637 5634 5632 5629 5627 5624 5621 5619 5617 5616 5615 5615 5615 5615 5615 5615 5615 5615 5616 5616 5616 5617 5617 5617 5618 5618
5671 5666 5662 5659 5655 5652 5648 5644 5642 5639 5638 5637 5635 5633 5632 5632 5632 5632 5630 5628 5625 5623 5618 5614 5611 5609 5608 5607 5607 5607 5608 5608 5608 5608 5609 5610 5610 5611 5611 5611 5611 5611 5612
5665 5660 5656 5652 5649 5645 5641 5637 5633 5631 5630 5628 5626 5626 5625 5624 5624 5623 5621 5618 5616 5614 5609 5605 5602 5601 5600 5599 5599 5599 5599 5599 5599 5600 5601 5602 5603 5604 5605 5605 5605 5605 5606
5657 5654 5648 5644 5640 5636 5632 5628 5624 5621 5618 5615 5614 5614 5613 5613 5612 5610 5609 5607 5603 5600 5596 5593 5591 5590 5589 5589 5589 5589 5589 5590 5590 5590 5591 5592 5593 5594 5596 5597 5597 5598 5599
5648 5643 5639 5634 5631 5626 5622 5618 5614 5610 5606 5603 5601 5601 5600 5599 5598 5596 5595 5593 5589 5585 5583 5580 5579 5577 5577 5577 5576 5576 5576 5577 5577 5577 5578 5579 5580 5582 5583 5585 5587 5588 5589
5639 5636 5631 5625 5620 5616 5611 5607 5603 5599 5595 5591 5589 5587 5586 5585 5583 5580 5579 5577 5574 5572 5569 5568 5566 5565 5564 5563 5563 5563 5563 5563 5563 5563 5563 5564 5565 5567 5569 5571 5573 5575 5577
5628 5625 5622 5614 5609 5604 5600 5596 5591 5587 5583 5580 5577 5576 5575 5571 5568 5566 5564 5562 5560 5558 5556 5555 5553 5552 5551 5550 5549 5549 5549 5549 5548 5548 5548 5549 5550 5551 5553 5555 5557 5560 5562
5617 5611 5607 5602 5597 5593 5588 5584 5580 5575 5572 5568 5564 5563 5562 5558 5556 5553 5551 5549 5547 5546 5544 5542 5541 5539 5538 5536 5535 5535 5534 5533 5533 5532 5532 5532 5533 5534 5536 5538 5540 5542 5545
5605 5599 5594 5589 5585 5582 5576 5571 5567 5563 5559 5556 5553 5550 5548 5545 5543 5541 5539 5537 5535 5533 5532 5530 5528 5526 5525 5523 5522 5520 5519 5517 5516 5515 5515 5515 5516 5517 5518 5520 5522 5524 5526
5592 5587 5582 5577 5572 5567 5563 5559 5555 5551 5547 5544 5541 5538 5535 5533 5530 5528 5526 5524 5522 5521 5519 5517 5515 5513 5511 5510 5508 5506 5504 5502 5500 5499 5498 5498 5498 5499 5500 5501 5503 5505 5507
5579 5575 5570 5564 5560 5555 5551 5547 5543 5539 5536 5532 5529 5526 5523 5521 5518 5516 5514 5512 5510 5508 5506 5504 5502 5500 5498 5496 5493 5491 5489 5487 5484 5483 5482 5481 5481 5481 5481 5482 5483 5485 5487
5567 5562 5557 5552 5548 5543 5539 5535 5531 5527 5523 5520 5517 5514 5511 5508 5506 5504 5501 5499 5497 5495 5493 5491 5489 5486 5484 5482 5479 5477 5474 5472 5469 5467 5465 5464 5464 5464 5463 5463 5464 5466 5467